TimeAKST,TemperatureF,Dew PointF,Humidity,Sea Level PressureIn,VisibilityMPH,Wind Direction,Wind SpeedMPH,Gust SpeedMPH,PrecipitationIn,Events,Conditions,WindDirDegrees,DateUTC
12:53 AM,-4.0,-9.0,79,29.81,10.0,West,18.4,-,N/A,,Overcast,270,2013-02-06 09:53:00
1:53 AM,-4.0,-9.9,76,29.82,10.0,West,13.8,-,N/A,,Overcast,260,2013-02-06 10:53:00
3:53 AM,-5.1,-11.0,76,29.82,10.0,West,17.3,-,N/A,,Overcast,260,2013-02-06 12:53:00
4:53 AM,-6.0,-11.0,79,29.82,10.0,West,18.4,-,N/A,,Overcast,270,2013-02-06 13:53:00
5:53 AM,-7.1,-11.9,79,29.82,10.0,West,18.4,-,N/A,,Overcast,260,2013-02-06 14:53:00
6:53 AM,-7.1,-13.0,75,29.83,10.0,West,17.3,-,N/A,,Overcast,270,2013-02-06 15:53:00
7:53 AM,-7.1,-11.9,79,29.83,10.0,West,16.1,-,N/A,,Overcast,260,2013-02-06 16:53:00
8:53 AM,-7.1,-11.9,79,29.84,10.0,West,13.8,-,N/A,,Overcast,270,2013-02-06 17:53:00
9:53 AM,-8.0,-13.0,79,29.84,10.0,West,17.3,-,N/A,,Overcast,270,2013-02-06 18:53:00
10:53 AM,-8.0,-14.1,75,29.85,10.0,West,17.3,-,N/A,,Overcast,270,2013-02-06 19:53:00
11:53 AM,-9.0,-14.1,79,29.86,10.0,West,16.1,-,N/A,,Overcast,260,2013-02-06 20:53:00
12:53 PM,-9.0,-15.0,75,29.87,10.0,West,17.3,-,N/A,,Mostly Cloudy,260,2013-02-06 21:53:00
1:53 PM,-9.0,-15.0,75,29.88,10.0,West,10.4,-,N/A,,Overcast,280,2013-02-06 22:53:00
2:53 PM,-9.0,-16.1,71,29.88,10.0,West,12.7,-,N/A,,Mostly Cloudy,260,2013-02-06 23:53:00
4:53 PM,-9.9,-16.1,74,29.86,10.0,West,12.7,-,N/A,,Overcast,260,2013-02-07 01:53:00
5:53 PM,-11.0,-17.0,75,29.86,10.0,West,15.0,-,N/A,,Mostly Cloudy,260,2013-02-07 02:53:00
6:53 PM,-11.9,-17.0,78,29.87,10.0,West,13.8,-,N/A,,Mostly Cloudy,260,2013-02-07 03:53:00
7:53 PM,-14.1,-18.9,79,29.87,9.0,West,15.0,-,N/A,,Mostly Cloudy,260,2013-02-07 04:53:00
8:53 PM,-18.0,-23.1,78,29.87,10.0,Calm,Calm,-,N/A,,Clear,0,2013-02-07 05:53:00
9:08 PM,-14.8,-20.2,77,29.86,4.0,WSW,3.5,-,N/A,,Haze,250,2013-02-07 06:08:00
9:17 PM,-16.6,-20.2,84,29.86,3.0,SSW,4.6,-,N/A,,Haze,210,2013-02-07 06:17:00
9:53 PM,-17.0,-22.0,78,29.86,3.0,SSW,5.8,-,N/A,,Haze,200,2013-02-07 06:53:00
10:53 PM,-17.0,-23.1,74,29.84,3.0,SW,9.2,-,N/A,,Haze,220,2013-02-07 07:53:00
11:38 PM,-20.2,-23.8,83,29.83,10.0,SSW,8.1,-,N/A,,Scattered Clouds,200,2013-02-07 08:38:00
11:53 PM,-24.0,-29.0,77,29.83,10.0,South,4.6,-,N/A,,Clear,190,2013-02-07 08:53:00